Location: Catstown
(52.4386°N, 7.2633°W)
Time: 13:37:15
(UTC+00:00)

Cosmos 1844 Rocket - Pass Details

Date: 18 September 2020
Orbit: 823 x 846 km, 71.0° (Epoch: 25 October)

Event Time Altitude Azimuth Distance (km) Brightness Sun altitude
Rises 21:22:11 0° 216° (SW) 3,350 5.8 -24.2°
Reaches altitude 10° 21:24:36 10° 218° (SW) 2,422 5.1 -24.5°
Maximum altitude 21:30:09 73° 303° (WNW) 868 2.8 -25.1°
Drops below altitude 10° 21:35:46 10° 29° (NNE) 2,449 5.2 -25.8°
Sets 21:38:14 0° 31° (NNE) 3,390 6.0 -26.1°
